Location: Dal�� Lhota
(48.7500°N, 14.0167°E)
Time: 17:46:44
(UTC+00:00)

Vanguard 3 - Pass Details

Date: 04 August 2021
Orbit: 510 x 3260 km, 33.3° (Epoch: 20 September)

Event Time Altitude Azimuth Distance (km) Brightness Sun altitude
Rises 23:12:06 0° 274° (W) 7,112 12.0 -24.3°
Reaches altitude 10° 23:20:19 10° 255° (WSW) 6,200 11.4 -24.2°
Maximum altitude 23:28:50 15° 229° (SW) 5,673 11.0 -24.1°
Enters shadow 23:30:14 14° 225° (SW) 5,642 11.0 -24.1°
Drops below altitude 10° 23:36:53 10° 202° (SSW) 5,735 - -24.0°
Sets 23:44:00 0° 182° (S) 6,273 - -23.8°
